Content
SEND FEEDBACK

Daily
Averages
Monthly
Summary
French Polynesia

PAPEETE, FRENCH POLYNESIA


Home > Oceania > French Polynesia
Elevation: 7 feet     Latitude: 17 33S     Longitude: 149 36W

WEATHER
 
SELECT A DAY
Number of Records: 214,112;   Date Range: 6/30/96 - 10/18/14
 
SHARE

PRINT THIS DATA

[ ← Previous Day ]
WEATHER ALMANAC - MARCH 6, 2013
[ Next Day → ]
[ °C ]   °F
Weather ElementAverageHighLow
Temperature82 °F87.8 °F (11:30 am)77 °F (2:30 am)
Dewpoint70.5 °F73.4 °F (1:00 am)68 °F (11:00 pm)
Humidity67.4 %83 % (1:00 am)48 % (11:00 am)
Barometer29.94 in29.98 in (8:00 am)29.89 in (2:30 am)
Wind Speed5.4 mph12.7 mph (12:30 pm)
Weather ElementAverage
Visibility8 mi
Wind DirectionS (184.1 °)

Weather ElementTotal
Precipitation---
Cooling Degree Days17.4 (Base 65)
Growing Degree Days32.4 (Base 50)
Averaged from 55 records on March 6, 2013
WEATHER CONDITIONS BREAKOUT
WIND DIRECTION BREAKOUT
WEATHER BY HOUR - MARCH 6, 2013
[ °C ]   °F
Local TimeTemperatureDewpointHumidityBarometerVisibilityWind DirectionWind SpeedGust SpeedPrecipitationEventsConditions
12:30 AM78.8 °F71.6 °F78 %29.92 in6.2 miVariable2.3 mphPartly Cloudy
1:00 AM78.8 °F73.4 °F83 %29.92 in6.2 miWest (260°)4.6 mphPartly Cloudy
1:30 AM80.6 °F71.6 °F74 %29.92 in6.2 miWest (270°)10.4 mphScattered Clouds
2:00 AM81.0 °F71.0 °F65 %29.92 in12.0 miWSW (240°)5.8 mphScattered Clouds
2:00 AM80.6 °F71.6 °F74 %29.92 in6.2 miWSW (240°)5.8 mphMostly Cloudy
2:30 AM77.0 °F69.8 °F78 %29.89 in6.2 miEast (80°)6.9 mphMostly Cloudy
3:00 AM77.0 °F69.8 °F78 %29.89 in6.2 miENE (70°)3.5 mphMostly Cloudy
3:30 AM77.0 °F69.8 °F78 %29.92 in6.2 miEast (80°)4.6 mph
4:00 AM77.0 °F69.8 °F78 %29.92 in6.2 miVariable3.5 mph
4:30 AM78.8 °F71.6 °F78 %29.92 in6.2 miWest (280°)6.9 mph
5:00 AM77.0 °F70.0 °F73 %29.95 in34.0 miSSE (160°)4.5 mphClear
5:00 AM77.0 °F69.8 °F78 %29.95 in6.2 miVariable2.3 mph
5:30 AM77.0 °F71.6 °F83 %29.95 in6.2 miWest (260°)6.9 mph
6:00 AM78.8 °F69.8 °F74 %29.95 in6.2 miSSW (200°)4.6 mphMostly Cloudy
6:30 AM77.0 °F69.8 °F78 %29.95 in6.2 miEast (100°)4.6 mphMostly Cloudy
7:00 AM78.8 °F71.6 °F78 %29.95 in6.2 miEast (90°)4.6 mphMostly Cloudy
7:30 AM80.6 °F71.6 °F74 %29.95 in6.2 miVariable3.5 mphScattered Clouds
8:00 AM82.0 °F70.0 °F59 %29.98 in19.0 miNE (50°)3.5 mphPartly Cloudy
8:00 AM82.4 °F69.8 °F66 %29.98 in6.2 miNE (50°)3.5 mphScattered Clouds
8:30 AM84.2 °F71.6 °F66 %29.98 in6.2 miNNE (30°)4.6 mphScattered Clouds
9:00 AM84.2 °F71.6 °F66 %29.98 in6.2 miNorth (360°)3.5 mphScattered Clouds
9:30 AM84.2 °F69.8 °F62 %29.98 in6.2 miWest (280°)8.1 mphScattered Clouds
10:00 AM84.2 °F69.8 °F62 %29.98 in6.2 miWNW (300°)6.9 mphPartly Cloudy
10:30 AM86.0 °F69.8 °F58 %29.98 in6.2 miWNW (300°)3.5 mphPartly Cloudy
11:00 AM87.0 °F70.0 °F48 %29.97 in19.0 miNNW (330°)3.5 mphScattered Clouds
11:00 AM86.0 °F69.8 °F58 %29.95 in6.2 miNNW (330°)3.5 mphPartly Cloudy
11:30 AM87.8 °F71.6 °F58 %29.95 in6.2 miNorth (350°)5.8 mphScattered Clouds
12:00 PM86.0 °F69.8 °F58 %29.95 in6.2 miNorth (350°)11.5 mphScattered Clouds
12:30 PM84.2 °F69.8 °F62 %29.92 in6.2 miNNW (340°)12.7 mphMostly Cloudy
1:00 PM86.0 °F71.6 °F62 %29.92 in6.2 miNW (310°)9.2 mphScattered Clouds
1:30 PM86.0 °F69.8 °F58 %29.92 in6.2 miNW (310°)10.4 mphScattered Clouds
2:00 PM87.0 °F72.0 °F51 %29.92 in19.0 miWest (280°)10.4 mphPartly Cloudy
2:00 PM86.0 °F71.6 °F62 %29.92 in6.2 miWest (280°)10.4 mphScattered Clouds
2:30 PM86.0 °F71.6 °F62 %29.92 in6.2 miWest (280°)9.2 mphScattered Clouds
3:00 PM86.0 °F73.4 °F66 %29.89 in6.2 miWest (280°)11.5 mphScattered Clouds
3:30 PM86.0 °F71.6 °F62 %29.89 in6.2 miSW (230°)6.9 mphScattered Clouds
4:00 PM87.8 °F69.8 °F55 %29.89 in6.2 miVariable2.3 mphScattered Clouds
4:30 PM86.0 °F71.6 °F62 %29.89 in6.2 miNorth (10°)5.8 mphScattered Clouds
5:00 PM86.0 °F71.0 °F52 %29.89 in19.0 miNorth (350°)8.1 mphMostly Cloudy
5:00 PM86.0 °F71.6 °F62 %29.89 in6.2 miNorth (350°)8.1 mphScattered Clouds
5:30 PM84.2 °F71.6 °F66 %29.89 in6.2 miNNW (340°)8.1 mphScattered Clouds
6:00 PM84.2 °F69.8 °F62 %29.92 in6.2 miNorth (360°)5.8 mphScattered Clouds
6:30 PM82.4 °F69.8 °F66 %29.92 in6.2 miNNW (330°)5.8 mphScattered Clouds
7:00 PM82.4 °F69.8 °F66 %29.95 in6.2 miVariable2.3 mphScattered Clouds
7:30 PM82.4 °F69.8 °F66 %29.95 in6.2 miVariable1.2 mphScattered Clouds
8:00 PM82.0 °F69.0 °F56 %29.96 in12.0 miCalmMostly Cloudy
8:00 PM82.4 °F69.8 °F66 %29.95 in6.2 miCalmScattered Clouds
8:30 PM80.6 °F69.8 °F70 %29.95 in6.2 miVariable2.3 mphScattered Clouds
9:00 PM80.6 °F69.8 °F70 %29.95 in6.2 miEast (90°)3.5 mphPartly Cloudy
9:30 PM78.8 °F69.8 °F74 %29.95 in6.2 miEast (100°)4.6 mphPartly Cloudy
10:00 PM78.8 °F69.8 °F74 %29.95 in6.2 miEast (100°)3.5 mphPartly Cloudy
10:30 PM78.8 °F69.8 °F74 %29.95 in6.2 miCalmPartly Cloudy
11:00 PM77.0 °F69.0 °F69 %29.96 in12.0 miSouth (180°)3.5 mphScattered Clouds
11:00 PM77.0 °F68.0 °F74 %29.95 in6.2 miSouth (180°)3.5 mphPartly Cloudy
11:30 PM77.0 °F68.0 °F74 %29.95 in6.2 miSouth (180°)5.8 mphPartly Cloudy
Hourly data recorded from NTAA, located miles away from Papeete, French Polynesia







STORIES FROM OUR PARTNERS